This is the latest recevied weather packets stored in our database for station/object N2PPN. If no packets are shown the sender has not sent any weather packets the latest 10 day(s).
| Time | Temp. | Humidity | Pressure | Rain* | Wind** | Luminosity | Snow |
|---|---|---|---|---|---|---|---|
| 1777295010 | 13.89° C | 68% | 1026.3 hPa | 0 mm | - | 369 W/m² | - |
| 1777294706 | 13.89° C | 67% | 1026.6 hPa | 0 mm | - | 355 W/m² | - |
| 1777294401 | 13.33° C | 69% | 1026.5 hPa | 0 mm | - | 340 W/m² | - |
| 1777294098 | 12.78° C | 70% | 1026.5 hPa | 0 mm | - | 325 W/m² | - |
| 1777293796 | 12.78° C | 70% | 1026.5 hPa | 0 mm | - | 312 W/m² | - |
| 1777293496 | 12.22° C | 71% | 1026.3 hPa | 0 mm | - | 295 W/m² | - |
| 1777293192 | 12.22° C | 70% | 1026.6 hPa | 0 mm | - | 280 W/m² | - |
| 1777292891 | 12.22° C | 70% | 1026.5 hPa | 0 mm | - | 265 W/m² | - |
| 1777292587 | 12.22° C | 71% | 1026.3 hPa | 0 mm | - | 250 W/m² | - |
| 1777292283 | 11.67° C | 73% | 1026.2 hPa | 0 mm | - | 235 W/m² | - |
| 1777291980 | 11.67° C | 73% | 1026.3 hPa | 0 mm | - | 221 W/m² | - |
| 1777291676 | 11.11° C | 76% | 1026.3 hPa | 0 mm | - | 205 W/m² | - |
| 1777291373 | 11.11° C | 76% | 1026.4 hPa | 0 mm | - | 172 W/m² | - |
| 1777291070 | 11.11° C | 77% | 1026.2 hPa | 0 mm | - | 144 W/m² | - |
| 1777290761 | 10.56° C | 79% | 1026.1 hPa | 0 mm | - | 118 W/m² | - |
| 1777290458 | 10° C | 80% | 1026.1 hPa | 0 mm | - | 97 W/m² | - |
| 1777290154 | 10° C | 81% | 1026.2 hPa | 0 mm | - | 85 W/m² | - |
| 1777289851 | 9.44° C | 81% | 1026.1 hPa | 0 mm | - | 76 W/m² | - |
| 1777289547 | 9.44° C | 83% | 1026 hPa | 0 mm | - | 73 W/m² | - |
| 1777289242 | 8.89° C | 85% | 1025.9 hPa | 0 mm | - | 68 W/m² | - |
| 1777288939 | 8.89° C | 86% | 1026.1 hPa | 0 mm | - | 65 W/m² | - |
| 1777288636 | 8.33° C | 88% | 1026 hPa | 0 mm | - | 59 W/m² | - |
| 1777288332 | 7.78° C | 89% | 1025.7 hPa | 0 mm | - | 54 W/m² | - |
| 1777288024 | 7.22° C | 91% | 1026 hPa | 0 mm | - | 53 W/m² | - |
| 1777287721 | 6.67° C | 94% | 1025.8 hPa | 0 mm | - | 49 W/m² | - |
* Rain latest hour (hover to see other rain measurements)
** Current wind speed in m/s (hover to see current wind gust speed)